Tracking 28790 objects as of 18-Apr-2024
HD Live streaming from Space Station
objects crossing your sky now

STARLINK-1987

Track STARLINK-1987 now!
10-day predictions
STARLINK-1987 is classified as:


NORAD ID: 47583
Int'l Code: 2021-009AM
Perigee: 553.4 km
Apogee: 555.5 km
Inclination: 53.1 °
Period: 95.6 minutes
Semi major axis: 6925 km
RCS: Unknown
Launch date: February 4, 2021
Source: United States (US)
Launch site: AIR FORCE EASTERN TEST RANGE (AFETR)
Your satellite tracking list
Your tracking list is empty




NASA's NSSDC Master Catalog

Two Line Element Set (TLE):
1 47583U 21009AM  24109.52619402  .00003118  00000-0  22827-3 0  9991
2 47583  53.0541 239.8758 0001522  88.2457 271.8707 15.06373763177382
Source of the keplerian elements: AFSPC